[[{"header":{"parameterUnit":"m.s-1","parameterCategory":1,"la1":30.2991,"la2":30.254,"lo1":-89.0895,"lo2":-89.0444,"dy":0.0017,"dx":0.0017,"nx":28,"ny":28,"refTime":"2024-05-02T09:00:00:Z","depth":0,"parameterNumber":2,"parameterNumberName":"U-component_of_WINDS"},"data":[0,0,0,0,0,0,0,0,0,0,0,0,0,0,0,0,0,0,0,0,0,0,0,0,0,0,0,0,0,0,0,0,0,0,0,0,0,0,0,0,0,0,0,0,0,0,0,0,0,0,0,0,0,0,0,0,0,0,-3.5513,-3.5515,0,-3.564,-3.5641,-3.5643,-3.5663,-3.5662,-3.5661,-3.566,-3.5785,-3.579,-3.5794,0,0,0,0,0,0,0,0,0,0,0,0,0,-3.5286,-3.529,-3.5513,-3.5515,-3.5516,-3.564,-3.5641,-3.5643,-3.5663,-3.5662,-3.566,-3.5659,-3.5784,-3.5789,-3.5794,0,0,0,0,0,0,0,0,0,0,0,0,0,-3.5396,-3.5292,-3.5513,-3.5541,-3.5545,-3.5639,-3.5642,-3.5644,-3.5663,-3.5662,-3.566,-3.5659,-3.5782,-3.5789,-3.5795,-3.5868,0,0,-3.5815,-3.5818,0,0,0,0,0,0,0,0,-3.539,-3.5404,-3.5536,-3.554,-3.5544,-3.5634,-3.5608,-3.5719,-3.5664,-3.5618,-3.566,-3.5658,-3.5736,-3.5746,-3.5774,-3.5874,-3.588,-3.5816,-3.582,-3.5822,-3.5824,0,0,0,0,0,0,0,-3.5382,-3.5399,-3.5563,-3.5537,-3.5543,-3.5547,-3.5561,-3.5629,-3.5685,-3.5622,-3.5624,-3.5639,-3.5738,-3.5767,-3.5777,-3.5882,-3.5815,-3.5821,-3.5825,-3.5828,-3.605,-3.6052,0,0,0,0,0,0,-3.537,-3.5393,-3.5559,-3.5567,-3.5461,-3.5552,-3.5568,-3.5607,-3.5684,-3.5694,-3.564,-3.5639,-3.5757,-3.5769,-3.5781,-3.5872,-3.5822,-3.5828,-3.5832,-3.6048,-3.6051,-3.6053,0,0,0,0,0,0,-3.5365,-3.5385,-3.5554,-3.548,-3.5502,-3.5558,-3.5602,-3.561,-3.5639,-3.5698,-3.5708,-3.566,-3.5756,-3.5772,-3.5847,-3.5877,-3.5831,-3.5837,-3.6046,-3.6049,-3.6052,-3.6055,0,0,0,0,0,0,-3.5358,-3.5383,-3.5411,-3.5481,-3.5506,-3.5619,-3.5604,-3.5614,-3.5651,-3.5651,-3.5719,-3.5728,-3.5756,-3.5837,-3.5854,-3.5885,-3.5842,-3.6043,-3.6047,-3.6051,-3.6053,-3.6058,-3.6063,0,0,0,0,0,-3.535,-3.5406,-3.5413,-3.5433,-3.5544,-3.562,-3.5635,-3.5666,-3.5653,-3.5683,-3.5721,-3.5726,-3.5872,-3.5845,-3.5863,-3.5897,-3.6042,-3.6046,-3.6051,-3.605,-3.6057,-3.6063,0,0,0,0,0,0,-3.5337,-3.5416,-3.5424,-3.5504,-3.5556,-3.5624,-3.5661,-3.5672,-3.5727,-3.5724,-3.576,-3.5776,-3.5849,-3.5881,-3.585,-3.5973,-3.5956,-3.5964,-3.5949,-3.5956,-3.5961,-3.595,-3.5848,0,0,0,0,0,-3.5344,-3.54,-3.5466,-3.5531,-3.5556,-3.5605,-3.5639,-3.5659,-3.5713,-3.5735,-3.5778,-3.5829,-3.5887,-3.5923,-3.5979,-3.6059,-3.6073,-3.6091,-3.6096,-3.61,-3.6106,-3.6151,-3.6159,-3.6067,-3.6067,-3.6067,0,0,-3.5357,-3.5408,-3.5441,-3.5529,-3.5572,-3.5629,-3.5622,-3.5683,-3.5725,-3.5743,-3.5817,-3.5851,-3.5911,-3.5989,-3.6025,-3.6017,-3.6135,-3.6106,-3.6108,-3.6112,-3.6156,-3.6165,-3.6172,-3.607,-3.607,-3.6069,0,0,-3.5412,-3.5456,-3.5515,-3.5558,-3.5623,-3.5655,-3.5669,-3.5736,-3.576,-3.5835,-3.585,-3.5901,-3.5999,-3.6041,-3.6075,-3.6149,-3.6156,-3.6166,-3.6191,-3.6234,-3.6241,-3.6248,-3.6273,-3.6282,-3.6172,-3.6173,-3.6173,0,-3.542,-3.5508,-3.5543,-3.5604,-3.5642,-3.5664,-3.5724,-3.5763,-3.5842,-3.5868,-3.5859,-3.5984,-3.6026,-3.6114,-3.6132,-3.6159,-3.6176,-3.6157,-3.6238,-3.6244,-3.6251,-3.6276,-3.6285,-3.6173,-3.6173,-3.6173,-3.6173,0,-3.5515,-3.5575,-3.5615,-3.5693,-3.5736,-3.5796,-3.584,-3.588,-3.5897,-3.593,-3.6007,-3.6058,-3.6125,-3.6148,-3.6165,-3.6239,-3.6232,-3.623,-3.6213,-3.626,-3.6284,-3.6293,-3.6174,-3.6174,-3.6174,-3.6174,0,0,-3.5561,-3.566,-3.5674,-3.571,-3.5784,-3.5831,-3.5893,-3.596,-3.5993,-3.6047,-3.6099,-3.6183,-3.6182,-3.6221,-3.6243,-3.6281,-3.6336,-3.6275,-3.6277,-3.6283,-3.642,-3.642,-3.643,-3.6342,-3.6344,-3.6346,-3.6415,0,-3.5623,-3.5734,-3.5769,-3.586,-3.5917,-3.594,-3.5993,-3.6044,-3.6077,-3.6129,-3.6166,-3.6224,-3.6219,-3.6243,-3.6282,-3.6321,-3.6363,-3.6317,-3.6389,-3.6391,-3.6372,-3.6443,-3.6443,-3.6505,-3.6424,-3.6426,-3.6427,0,-3.5709,-3.5767,-3.5865,-3.5934,-3.5959,-3.6006,-3.6071,-3.6122,-3.618,-3.6202,-3.6247,-3.6266,-3.6331,-3.6312,-3.64,-3.6368,-3.64,-3.6424,-3.6427,-3.6433,-3.641,-3.645,-3.6526,-3.6535,-3.6442,-3.6441,-3.644,0,-3.5732,-3.5835,-3.5907,-3.5937,-3.6019,-3.6052,-3.6087,-3.6145,-3.6184,-3.6241,-3.6266,-3.6329,-3.6364,-3.6412,-3.6448,-3.6431,-3.6534,-3.6518,-3.6552,-3.6552,-3.6571,-3.6569,-3.6652,-3.6595,-3.6594,-3.6594,-3.6594,0,-3.5797,-3.5855,-3.5919,-3.5963,-3.6029,-3.607,-3.6134,-3.6171,-3.6222,-3.6273,-3.6297,-3.6344,-3.639,-3.6444,-3.6473,-3.6542,-3.6557,-3.6576,-3.6582,-3.6573,-3.657,-3.6592,-3.6588,-3.6597,-3.6596,-3.6596,-3.6595,0,-3.5832,-3.5877,-3.5957,-3.6029,-3.6049,-3.6095,-3.6156,-3.62,-3.6235,-3.63,-3.6317,-3.6372,-3.6436,-3.6478,-3.6559,-3.6579,-3.6654,-3.666,-3.6634,-3.6637,-3.6669,-3.6665,-3.6768,-3.6784,-3.6717,-3.6718,-3.6718,0,-3.587,-3.5916,-3.5994,-3.6031,-3.6067,-3.6125,-3.6166,-3.6208,-3.6249,-3.632,-3.6355,-3.6421,-3.6476,-3.6578,-3.6625,-3.6687,-3.6694,-3.6727,-3.6704,-3.6693,-3.6694,-3.669,-3.6694,-3.6729,-3.673,-3.673,-3.673,0,-3.5931,-3.5952,-3.6009,-3.6076,-3.6124,-3.6177,-3.6231,-3.626,-3.6311,-3.6356,-3.6423,-3.6466,-3.655,-3.6616,-3.6683,-3.6719,-3.6733,-3.6738,-3.6749,-3.6738,-3.6721,-3.673,-3.6643,-3.6734,-3.6734,-3.6734,-3.6734,-3.6733,-3.5968,-3.6011,-3.6072,-3.6136,-3.6182,-3.6232,-3.6277,-3.6319,-3.6375,-3.6448,-3.647,-3.6539,-3.6598,-3.6691,-3.6728,-3.6783,-3.6779,-3.6795,-3.6799,-3.6802,-3.6802,-3.6714,-3.6796,-3.6796,-3.6795,-3.6795,-3.6795,0,-3.603,-3.6072,-3.613,-3.6206,-3.6256,-3.6268,-3.6328,-3.6369,-3.6431,-3.6485,-3.654,-3.6617,-3.6681,-3.6734,-3.68,-3.6833,-3.6842,-3.6849,-3.6846,-3.6854,-3.6802,-3.6785,-3.6842,-3.6842,-3.6842,-3.6841,-3.6841,-3.6841,-3.6068,-3.614,-3.6168,-3.6263,-3.6304,-3.6374,-3.6407,-3.6454,-3.6498,-3.6583,-3.6637,-3.6672,-3.6726,-3.6796,-3.6856,-3.687,-3.6892,-3.6898,-3.6913,-3.6863,-3.6858,-3.6853,-3.6837,-3.6903,-3.6903,-3.6961,-3.6961,-3.6961]},{"header":{"parameterUnit":"m.s-1","parameterCategory":1,"la1":30.2991,"la2":30.254,"lo1":-89.0895,"lo2":-89.0444,"dy":0.0017,"dx":0.0017,"nx":28,"ny":28,"refTime":"2024-05-02T09:00:00:Z","depth":0,"parameterNumber":3,"parameterNumberName":"V-component_of_WINDS"},"data":[0,0,0,0,0,0,0,0,0,0,0,0,0,0,0,0,0,0,0,0,0,0,0,0,0,0,0,0,0,0,0,0,0,0,0,0,0,0,0,0,0,0,0,0,0,0,0,0,0,0,0,0,0,0,0,0,0,0,3.9166,3.9166,0,3.9178,3.9178,3.9178,3.9167,3.9167,3.9167,3.9166,3.9171,3.9171,3.9172,0,0,0,0,0,0,0,0,0,0,0,0,0,3.9131,3.9132,3.9166,3.9166,3.9167,3.9178,3.9178,3.9178,3.9167,3.9167,3.9167,3.9166,3.917,3.9171,3.9172,0,0,0,0,0,0,0,0,0,0,0,0,0,3.9145,3.9132,3.9166,3.9163,3.9163,3.9178,3.9178,3.9178,3.9168,3.9167,3.9166,3.9166,3.917,3.9171,3.9172,3.9188,0,0,3.9174,3.9174,0,0,0,0,0,0,0,0,3.9144,3.9146,3.9163,3.9163,3.9163,3.9171,3.9167,3.9181,3.9168,3.9165,3.9166,3.9166,3.9171,3.9171,3.9175,3.9188,3.9189,3.9174,3.9174,3.9175,3.9175,0,0,0,0,0,0,0,3.9143,3.9145,3.917,3.9163,3.9163,3.9159,3.9161,3.917,3.9171,3.9166,3.9165,3.9167,3.917,3.9174,3.9175,3.9189,3.9174,3.9175,3.9175,3.9175,3.9221,3.9221,0,0,0,0,0,0,3.9143,3.9145,3.917,3.9171,3.9152,3.9161,3.9162,3.9169,3.9171,3.9171,3.9167,3.9166,3.9173,3.9174,3.9175,3.9197,3.9175,3.9175,3.9176,3.922,3.9221,3.9222,0,0,0,0,0,0,3.9143,3.9146,3.917,3.9158,3.9161,3.9162,3.9169,3.9169,3.9173,3.9172,3.9172,3.9171,3.9172,3.9174,3.9186,3.9197,3.9176,3.9176,3.9219,3.922,3.9221,3.9239,0,0,0,0,0,0,3.9142,3.9145,3.9152,3.9158,3.9161,3.9182,3.917,3.917,3.9175,3.9174,3.9176,3.9175,3.9172,3.9185,3.9187,3.9197,3.9177,3.9218,3.922,3.9221,3.9238,3.9241,3.9244,0,0,0,0,0,3.914,3.9154,3.9153,3.9156,3.917,3.9183,3.9185,3.9183,3.9176,3.9182,3.9183,3.9175,3.9196,3.9187,3.9189,3.9199,3.9217,3.9219,3.9221,3.9236,3.924,3.9244,0,0,0,0,0,0,3.9146,3.9155,3.9153,3.917,3.9176,3.9181,3.9189,3.9186,3.9192,3.9191,3.9186,3.9187,3.9201,3.9201,3.9191,3.9217,3.9205,3.9207,3.9216,3.922,3.9223,3.9222,3.9178,0,0,0,0,0,3.915,3.9161,3.9168,3.9182,3.9186,3.9187,3.9192,3.9191,3.9196,3.9198,3.9199,3.9203,3.9211,3.9215,3.9222,3.9238,3.9239,3.9247,3.925,3.9252,3.9254,3.9265,3.9269,3.9227,3.9227,3.9227,0,0,3.9156,3.9163,3.9169,3.9183,3.9188,3.9199,3.9189,3.92,3.9208,3.9199,3.9212,3.9214,3.9218,3.9234,3.924,3.9234,3.9266,3.9254,3.9256,3.9256,3.9267,3.9271,3.9275,3.9228,3.9228,3.9228,0,0,3.9175,3.918,3.9194,3.9201,3.921,3.9212,3.9215,3.9222,3.9224,3.9238,3.9232,3.9241,3.9253,3.9258,3.9261,3.9287,3.9281,3.9289,3.9304,3.9315,3.9318,3.9321,3.9332,3.9335,3.9291,3.9291,3.9291,0,3.9181,3.9199,3.9201,3.9215,3.9222,3.9218,3.9232,3.9237,3.9247,3.9251,3.9245,3.9264,3.9266,3.9284,3.9291,3.9293,3.9297,3.9288,3.9318,3.9321,3.9324,3.9334,3.9338,3.9292,3.9292,3.9292,3.9292,0,3.9208,3.9221,3.9231,3.9245,3.9253,3.9266,3.927,3.9277,3.9277,3.9279,3.9295,3.9298,3.9307,3.9311,3.9308,3.933,3.9326,3.9319,3.9307,3.9329,3.9338,3.9342,3.9293,3.9293,3.9293,3.9292,0,0,3.9226,3.9245,3.9249,3.9257,3.9269,3.9278,3.9292,3.9305,3.9312,3.932,3.9332,3.9345,3.934,3.9344,3.9342,3.9352,3.9375,3.9344,3.9345,3.9351,3.9401,3.9407,3.9411,3.9372,3.9373,3.9373,3.9401,0,3.9246,3.9274,3.9278,3.9302,3.9315,3.9314,3.9327,3.9335,3.9339,3.9349,3.9352,3.9363,3.9355,3.9358,3.9368,3.937,3.9385,3.9368,3.9382,3.9383,3.9382,3.9416,3.9421,3.9447,3.9405,3.9405,3.9406,0,3.9272,3.9285,3.9312,3.9326,3.9332,3.9343,3.9357,3.9367,3.9377,3.9379,3.9387,3.9386,3.94,3.9389,3.9409,3.9398,3.9404,3.9407,3.9408,3.9408,3.9395,3.9418,3.9455,3.9459,3.9411,3.9411,3.941,0,3.9284,3.9309,3.9329,3.9335,3.9352,3.9361,3.9367,3.9377,3.9386,3.9397,3.9403,3.9414,3.9421,3.943,3.9431,3.9422,3.9452,3.944,3.9454,3.9454,3.9459,3.9459,3.9498,3.9463,3.9463,3.9463,3.9463,0,3.9306,3.9322,3.9335,3.9347,3.9367,3.9372,3.939,3.9396,3.9406,3.9419,3.9418,3.9429,3.9431,3.9443,3.9444,3.9462,3.9464,3.9466,3.9466,3.9467,3.9467,3.947,3.9468,3.9464,3.9464,3.9464,3.9463,0,3.9322,3.9332,3.9354,3.937,3.9375,3.9388,3.9401,3.9413,3.9419,3.9435,3.9439,3.9447,3.9462,3.9465,3.9481,3.9482,3.9504,3.9501,3.9501,3.9501,3.9515,3.9514,3.9558,3.9565,3.9525,3.9526,3.9526,0,3.9335,3.9349,3.9369,3.9379,3.9388,3.9404,3.9414,3.9421,3.9431,3.9447,3.9457,3.9472,3.9485,3.9508,3.9514,3.9527,3.9526,3.9541,3.9527,3.9529,3.9527,3.9527,3.9529,3.9543,3.9543,3.9543,3.9544,0,3.9358,3.9364,3.938,3.9399,3.9413,3.9427,3.944,3.9449,3.9457,3.9469,3.9486,3.9497,3.9516,3.9532,3.9546,3.9552,3.9549,3.9549,3.9553,3.9553,3.9553,3.9554,3.9509,3.9547,3.9547,3.9546,3.9546,3.9546,3.9374,3.9387,3.9405,3.9424,3.9436,3.945,3.9464,3.9473,3.9489,3.9508,3.951,3.9529,3.9542,3.9562,3.9569,3.9583,3.9578,3.9584,3.9585,3.9586,3.9589,3.9551,3.9585,3.9585,3.9585,3.9585,3.9585,0,3.9398,3.9411,3.9428,3.945,3.9466,3.9467,3.9483,3.9495,3.9513,3.9527,3.9542,3.9563,3.9579,3.9589,3.9605,3.9615,3.9614,3.9619,3.9618,3.962,3.9591,3.9587,3.9619,3.9619,3.9619,3.9619,3.9619,3.9619,3.9412,3.9436,3.9444,3.9475,3.9487,3.9508,3.9518,3.9531,3.9543,3.9568,3.9583,3.9591,3.9603,3.9621,3.9636,3.9639,3.9645,3.965,3.9652,3.9625,3.9621,3.9618,3.9614,3.9652,3.9652,3.9679,3.968,3.968]}]]